Regional Weather Roundup
Issued by NWS

Home | Current Version | Previous Version | Graphics & Text | Print | Product List | Glossary On
Versions: 1 2 3 4 5 6 7 8 9 10 11 12 13 14 15 16 17 18 19 20 21 22 23 24 25 26 27 28 29 30 31 32 33 34 35 36 37 38 39 40 41 42 43 44 45 46 47 48 49 50
000
ASUS43 KMKX 280700
RWRWI

WISCONSIN REGIONAL WEATHER ROUNDUP
NATIONAL WEATHER SERVICE MILWAUKEE/SULLIVAN WI
200 AM CDT FRI AUG 28 2015

NOTE: "FAIR" INDICATES FEW OR NO CLOUDS BELOW 12,000 FEET WITH NO
SIGNIFICANT WEATHER AND/OR OBSTRUCTIONS TO VISIBILITY.

WIZ001-002-006>008-014>016-023>028-280800-
NORTHWEST WISCONSIN

CITY           SKY/WX    TMP DP  RH WIND       PRES   REMARKS
SUPERIOR ARPT  CLOUDY    55  52  88 CALM      29.98F
ASHLAND        CLOUDY    58  58 100 CALM      29.99F
HAYWARD        MOCLDY    60  57  89 S3        30.03R
SIREN          CLEAR     64  58  81 S8        30.00S
CUMBERLAND     PTCLDY    55  54  94 S6        30.03S
RICE LAKE      PTCLDY    59  56  91 SE3       30.04F
CHETEK         PTCLDY   N/A N/A N/A E3        30.04S
LADYSMITH      CLOUDY    61  58  90 S5        30.05F
EAU CLAIRE     MOCLDY    62  58  86 S3        30.03S
MENOMONIE      MOCLDY    59  58  96 CALM      30.03S
NEW RICHMOND   MOCLDY    59  58  96 CALM      30.02F
OSCEOLA        MOCLDY    61  61 100 SE5       30.03F
$$

WIZ003>005-009-010-017-018-280800-
NORTH CENTRAL WISCONSIN

CITY           SKY/WX    TMP DP  RH WIND       PRES   REMARKS
MANITOWISH WTR CLOUDY    60  58  94 S3        30.05S
ARBOR VITAE    MOCLDY    62  59  90 S5        30.05S
WOODRUFF       MOCLDY    62  59  90 S5        30.05S
RHINELANDER    PTCLDY    59  56  89 SW5       30.07F
EAGLE RIVER    PTCLDY    55  55  99 CALM      30.06S
LAND O LAKES   MOCLDY    57  56  94 CALM      30.06S
PHILLIPS       PTCLDY    60  57  92 S5        30.04S
TOMAHAWK       MOCLDY    55  54  97 CALM      30.06F
MEDFORD        CLOUDY    58  57  97 S7        30.07R
MERRILL        MOCLDY    54  54 100 CALM      30.07S
$$

WIZ029-030-035-036-043>047-280800-
CENTRAL WISCONSIN

CITY           SKY/WX    TMP DP  RH WIND       PRES   REMARKS
WAUSAU         MOCLDY    62  58  86 S7        30.06S
MOSINEE        MOCLDY    59  59 100 S7        30.08S
MARSHFIELD     CLOUDY    61  56  83 SW5       30.08R
STEVENS POINT  MOCLDY    57  55  93 S6        30.09R
WAUPACA        CLEAR     60  58  95 S3        30.09F
WAUTOMA        NOT AVBL
WISC RAPIDS    MOCLDY    63  56  78 S5        30.09R
CAMP DOUGLAS   NOT AVBL
$$

WIZ011>013-019>022-031-037>040-048>050-280800-
NORTHEAST WISCONSIN

CITY           SKY/WX    TMP DP  RH WIND       PRES   REMARKS
ANTIGO         CLEAR     57  55  95 SW5       30.08F
SHAWANO        CLEAR     61  56  85 CALM      30.08F
OCONTO         CLEAR     58  58 100 SW3       30.08R
STURGEON BAY   PTCLDY    59  52  77 S10       30.11S
GREEN BAY      PTCLDY    58  55  90 S6        30.09F
MANITOWOC      NOT AVBL
APPLETON       PTCLDY    59  55  88 S7        30.08F
CLINTONVILLE   PTCLDY    55  55 100 S3        30.08F
OSHKOSH        PTCLDY    59  54  83 S10       30.09F
$$

WIZ032>034-041-042-053>061-280800-
SOUTHWEST WISCONSIN

CITY           SKY/WX    TMP DP  RH WIND       PRES   REMARKS
LA CROSSE      MOCLDY    66  60  81 S9        30.05S
SPARTA         MOCLDY    57  55  94 CALM      30.07F
VIROQUA        MOCLDY    61  60  95 SE6       30.08F
BOSCOBEL       CLOUDY    61  59  93 CALM      30.08F
PRAIRIE DU CHI CLOUDY    64  58  78 E5        30.06F
PLATTEVILLE    CLOUDY    63  59  89 SE8       30.09F
$$

WIZ056-057-062-063-064-067-068-280800-
SOUTH CENTRAL WISCONSIN

CITY           SKY/WX    TMP DP  RH WIND       PRES   REMARKS
REEDSBURG      CLEAR     58  57  95 CALM      30.09F
BARABOO/DELLS  CLEAR     58  55  88 S8        30.09F
LONE ROCK      NOT AVBL
MINERAL POINT  MOCLDY    61  59  94 SE5       30.10S
MADISON        CLEAR     61  55  81 S6        30.10F
MIDDLETON      CLEAR     62  56  81 S5        30.11S
WATERTOWN      CLOUDY    58  55  90 CALM      30.11F
MONROE         MOCLDY    61  55  82 SE7       30.11F
JANESVILLE     PTCLDY    57  54  88 CALM      30.12R
$$

WIZ051-052-058>065-066-070>072-280800-
SOUTHEAST WISCONSIN

CITY           SKY/WX    TMP DP  RH WIND       PRES   REMARKS
MILWAUKEE      PTCLDY    59  54  83 S3        30.12S
WAUKESHA       CLEAR     55  52  88 S6        30.14F
MILWAUKEE/TIMM MOCLDY    57  52  82 S3        30.14R
RACINE         PTCLDY    58  54  86 SW5       30.14S
BURLINGTON     PTCLDY    49  49  99 CALM      30.12F FOG
KENOSHA        PTCLDY    55  52  89 S3        30.13S
FOND DU LAC    PTCLDY    58  53  84 S6        30.10F
SHEBOYGAN      CLEAR     54  51  90 S3        30.11F
WEST BEND      PTCLDY    55  50  82 CALM      30.12F
JUNEAU         MOCLDY    56  53  88 SE3       30.12F
$$

LSZ147-162-280800-
LAKE SUPERIOR

STATION/POSITION TIME  TEMP    WIND        PRES    WAVE
                       AIR SEA DIR/SP/G            HT/PER
                 (UTC) (F)     (DEG/KT/KT) (MB)    (FT/S)
W MID LAKE BUOY  0550   59 55  170/  8/  8 1015.2F   0
DEVILS ISLAND    0600   62     170/  3/  3 1015.2F
PORT WING        0600   57      CALM  /  1 1015.6F
SAXON HARBOR     0600   62     210/  4/  6 1015.2S
$$

LMZ867-665-643>646-280800-
LAKE MICHIGAN

STATION/POSITION TIME  TEMP    WIND        PRES    WAVE
                       AIR SEA DIR/SP/G            HT/PER
                 (UTC) (F)     (DEG/KT/KT) (MB)    (FT/S)
CHAMBERS ISLAND  0600   62     180/  3/  9 1018.3S
S GREEN BAY BUOY 0600   63     180/ 12/ 16 1019.9
N MID LAKE BUOY  0550   63 64  210/ 17/ 19 1018.3F   3/ 4
NORTHPORT PIER   0600   62     180/  5/ 10 1018.3S
SISTER BAY       0634   62     180/ 12/ 15   N/A
ALGOMA LAKESHORE 0629             CALM       N/A
KEWAUNEE LAKESHO 0600   61     210/  9/ 12 1018.3R
SHEBOYGAN LAKESH 0600   61     210/  9/  9 1020.2R
PORT WASHINGTON  0600   53      CALM  /  2 1021.0
ATWATER BUOY     0600   52 47  200/  2/  2 1021.5F
MILWAUKEE LAKESH 0600   58     130/  1/  1   N/A
S MID LAKE BUOY  0550   66 68  160/ 10/ 12 1020.5R   1
KENOSHA   LAKESH 0600   61     190/  5/  7 1020.0F
$$

TC  - TEMPERATURE IN CELSIUS
VSB - VISIBILITY IN STATUTE MILES
WCI - WIND CHILL INDEX
HX  - HEAT INDEX



USA.gov is the U.S. government's official web portal to all federal, state and local government web resources and services.